Time,TemperatureF,DewpointF,PressureIn,WindDirection,WindDirectionDegrees,WindSpeedMPH,WindSpeedGustMPH,Humidity,HourlyPrecipIn,Conditions,Clouds,dailyrainin,SoftwareType,DateUTC
2013-01-06 00:00:00,38.7,30.1,29.92,SSW,202,0.0,0.0,71,0.00,,,0.00,WeatherDisplay:10.37,2013-01-06 05:00:00,
2013-01-06 00:05:00,38.8,30.2,29.91,SSW,202,0.0,0.0,71,0.00,,,0.00,WeatherDisplay:10.37,2013-01-06 05:05:00,
2013-01-06 00:10:00,38.7,30.1,29.91,SSW,202,0.0,0.0,71,0.00,,,0.00,WeatherDisplay:10.37,2013-01-06 05:10:00,
2013-01-06 00:15:00,38.5,29.9,29.91,SSW,202,0.0,0.0,71,0.00,,,0.00,WeatherDisplay:10.37,2013-01-06 05:15:00,
2013-01-06 00:20:00,38.5,29.9,29.90,SSW,202,0.0,0.0,71,0.00,,,0.00,WeatherDisplay:10.37,2013-01-06 05:20:00,
2013-01-06 00:25:00,38.5,29.9,29.90,SSW,202,0.0,0.0,71,0.00,,,0.00,WeatherDisplay:10.37,2013-01-06 05:25:00,
2013-01-06 00:30:00,38.5,29.9,29.90,SSW,202,0.0,0.0,71,0.00,,,0.00,WeatherDisplay:10.37,2013-01-06 05:30:00,
2013-01-06 00:35:00,38.5,29.9,29.90,SSW,202,0.0,0.0,71,0.00,,,0.00,WeatherDisplay:10.37,2013-01-06 05:35:00,
2013-01-06 00:40:00,38.5,29.9,29.90,SSW,202,0.0,0.0,71,0.00,,,0.00,WeatherDisplay:10.37,2013-01-06 05:40:00,
2013-01-06 00:45:00,38.5,30.2,29.91,SSW,202,0.0,0.0,72,0.00,,,0.00,WeatherDisplay:10.37,2013-01-06 05:45:00,
2013-01-06 00:50:00,38.5,30.2,29.91,SSW,202,0.0,0.0,72,0.00,,,0.00,WeatherDisplay:10.37,2013-01-06 05:50:00,
2013-01-06 00:55:00,38.5,30.2,29.90,SSW,202,0.0,0.0,72,0.00,,,0.00,WeatherDisplay:10.37,2013-01-06 05:55:00,
2013-01-06 01:00:00,38.5,30.2,29.91,SSW,202,0.0,0.0,72,0.00,,,0.00,WeatherDisplay:10.37,2013-01-06 06:00:00,
2013-01-06 01:05:00,38.8,30.6,29.91,SSW,202,0.0,0.0,72,0.00,,,0.00,WeatherDisplay:10.37,2013-01-06 06:05:00,
2013-01-06 01:10:00,38.8,30.6,29.91,SSW,202,0.0,0.0,72,0.00,,,0.00,WeatherDisplay:10.37,2013-01-06 06:10:00,
2013-01-06 01:15:00,38.8,30.6,29.91,SSW,202,0.0,0.0,72,0.00,,,0.00,WeatherDisplay:10.37,2013-01-06 06:15:00,
2013-01-06 01:20:00,38.8,30.6,29.91,SSW,202,0.0,0.0,72,0.00,,,0.00,WeatherDisplay:10.37,2013-01-06 06:20:00,
2013-01-06 01:25:00,38.8,30.6,29.91,SSW,202,0.0,0.0,72,0.00,,,0.00,WeatherDisplay:10.37,2013-01-06 06:25:00,
2013-01-06 01:30:00,38.8,30.9,29.91,SSW,202,0.0,0.0,73,0.00,,,0.00,WeatherDisplay:10.37,2013-01-06 06:30:00,
2013-01-06 01:35:00,38.8,30.9,29.91,SSW,202,0.0,0.0,73,0.00,,,0.00,WeatherDisplay:10.37,2013-01-06 06:35:00,
2013-01-06 01:40:00,38.8,30.9,29.91,SSW,202,0.0,0.0,73,0.00,,,0.00,WeatherDisplay:10.37,2013-01-06 06:40:00,
2013-01-06 01:45:00,38.5,30.6,29.91,SSW,202,0.0,0.0,73,0.00,,,0.00,WeatherDisplay:10.37,2013-01-06 06:45:00,
2013-01-06 01:50:00,38.5,30.6,29.90,SSW,202,0.0,0.0,73,0.00,,,0.00,WeatherDisplay:10.37,2013-01-06 06:50:00,
2013-01-06 01:55:00,38.8,31.3,29.91,SSW,202,0.0,0.0,74,0.00,,,0.00,WeatherDisplay:10.37,2013-01-06 06:55:00,
2013-01-06 02:00:00,38.8,31.3,29.90,SSW,202,0.0,0.0,74,0.00,,,0.00,WeatherDisplay:10.37,2013-01-06 07:00:00,
2013-01-06 02:05:00,38.8,31.3,29.91,SSW,202,0.0,0.0,74,0.00,,,0.00,WeatherDisplay:10.37,2013-01-06 07:05:00,
2013-01-06 02:10:00,38.8,30.9,29.91,SSW,202,0.0,0.0,73,0.00,,,0.00,WeatherDisplay:10.37,2013-01-06 07:10:00,
2013-01-06 02:15:00,38.8,30.9,29.91,SSW,202,0.0,0.0,73,0.00,,,0.00,WeatherDisplay:10.37,2013-01-06 07:15:00,
2013-01-06 02:20:00,38.8,30.9,29.91,SSW,202,0.0,0.0,73,0.00,,,0.00,WeatherDisplay:10.37,2013-01-06 07:20:00,
2013-01-06 02:25:00,38.8,30.9,29.91,SSW,202,0.0,0.0,73,0.00,,,0.00,WeatherDisplay:10.37,2013-01-06 07:25:00,
2013-01-06 02:30:00,38.8,30.9,29.91,SSW,202,0.0,0.0,73,0.00,,,0.00,WeatherDisplay:10.37,2013-01-06 07:30:00,
2013-01-06 02:35:00,38.8,30.6,29.91,SSW,202,0.0,0.0,72,0.00,,,0.00,WeatherDisplay:10.37,2013-01-06 07:35:00,
2013-01-06 02:40:00,38.8,30.6,29.90,SSW,202,0.0,0.0,72,0.00,,,0.00,WeatherDisplay:10.37,2013-01-06 07:40:00,
2013-01-06 02:45:00,38.8,30.2,29.90,SSW,202,0.0,0.0,71,0.00,,,0.00,WeatherDisplay:10.37,2013-01-06 07:45:00,
2013-01-06 02:50:00,38.8,30.2,29.90,SSW,202,0.0,0.0,71,0.00,,,0.00,WeatherDisplay:10.37,2013-01-06 07:50:00,
2013-01-06 02:55:00,38.8,30.2,29.90,SSW,202,0.0,0.0,71,0.00,,,0.00,WeatherDisplay:10.37,2013-01-06 07:55:00,
2013-01-06 03:00:00,38.8,30.2,29.89,SSW,202,0.0,0.0,71,0.00,,,0.00,WeatherDisplay:10.37,2013-01-06 08:00:00,
2013-01-06 03:05:00,38.8,30.2,29.89,SSW,202,0.0,0.0,71,0.00,,,0.00,WeatherDisplay:10.37,2013-01-06 08:05:00,
2013-01-06 03:10:00,38.8,30.2,29.89,SSW,202,0.0,0.0,71,0.00,,,0.00,WeatherDisplay:10.37,2013-01-06 08:10:00,
2013-01-06 03:15:00,38.5,29.9,29.89,SSW,202,0.0,0.0,71,0.00,,,0.00,WeatherDisplay:10.37,2013-01-06 08:15:00,
2013-01-06 03:20:00,38.3,29.7,29.89,SSW,202,0.0,0.0,71,0.00,,,0.00,WeatherDisplay:10.37,2013-01-06 08:20:00,
2013-01-06 03:25:00,38.3,29.7,29.89,SSW,202,0.0,0.0,71,0.00,,,0.00,WeatherDisplay:10.37,2013-01-06 08:25:00,
2013-01-06 03:30:00,38.1,29.5,29.88,SSW,202,0.0,0.0,71,0.00,,,0.00,WeatherDisplay:10.37,2013-01-06 08:30:00,
2013-01-06 03:35:00,38.3,30.1,29.88,SSW,202,0.0,0.0,72,0.00,,,0.00,WeatherDisplay:10.37,2013-01-06 08:35:00,
2013-01-06 03:40:00,38.3,30.1,29.87,SSW,202,0.0,0.0,72,0.00,,,0.00,WeatherDisplay:10.37,2013-01-06 08:40:00,
2013-01-06 03:45:00,38.5,30.2,29.87,SSW,202,0.0,0.0,72,0.00,,,0.00,WeatherDisplay:10.37,2013-01-06 08:45:00,
2013-01-06 03:50:00,38.3,30.1,29.87,SSW,202,0.0,0.0,72,0.00,,,0.00,WeatherDisplay:10.37,2013-01-06 08:50:00,
2013-01-06 03:55:00,38.3,30.1,29.86,SSW,202,0.0,0.0,72,0.00,,,0.00,WeatherDisplay:10.37,2013-01-06 08:55:00,
2013-01-06 04:00:00,38.3,30.1,29.86,SSW,202,0.0,0.0,72,0.00,,,0.00,WeatherDisplay:10.37,2013-01-06 09:00:00,
2013-01-06 04:05:00,38.1,29.9,29.86,SSW,202,0.0,0.0,72,0.00,,,0.00,WeatherDisplay:10.37,2013-01-06 09:05:00,
2013-01-06 04:10:00,37.9,29.4,29.86,SSW,202,0.0,0.0,71,0.00,,,0.00,WeatherDisplay:10.37,2013-01-06 09:10:00,
2013-01-06 04:15:00,37.9,29.7,29.86,SSW,202,0.0,0.0,72,0.00,,,0.00,WeatherDisplay:10.37,2013-01-06 09:15:00,
2013-01-06 04:20:00,37.8,29.5,29.86,SSW,202,0.0,0.0,72,0.00,,,0.00,WeatherDisplay:10.37,2013-01-06 09:20:00,
2013-01-06 04:25:00,37.6,29.4,29.86,SSW,202,0.0,0.0,72,0.00,,,0.00,WeatherDisplay:10.37,2013-01-06 09:25:00,
2013-01-06 04:30:00,37.2,29.4,29.85,SSW,202,0.0,0.0,73,0.00,,,0.00,WeatherDisplay:10.37,2013-01-06 09:30:00,
2013-01-06 04:35:00,37.2,29.4,29.85,SSW,202,0.0,0.0,73,0.00,,,0.00,WeatherDisplay:10.37,2013-01-06 09:35:00,
2013-01-06 04:40:00,37.2,29.4,29.85,SSW,202,0.0,0.0,73,0.00,,,0.00,WeatherDisplay:10.37,2013-01-06 09:40:00,
2013-01-06 04:45:00,37.2,29.0,29.85,SSW,202,0.0,0.0,72,0.00,,,0.00,WeatherDisplay:10.37,2013-01-06 09:45:00,
2013-01-06 04:50:00,37.0,28.8,29.85,SSW,202,0.0,0.0,72,0.00,,,0.00,WeatherDisplay:10.37,2013-01-06 09:50:00,
2013-01-06 04:55:00,37.0,28.8,29.84,SSW,202,0.0,0.0,72,0.00,,,0.00,WeatherDisplay:10.37,2013-01-06 09:55:00,
2013-01-06 05:00:00,37.0,28.8,29.84,SSW,202,0.0,0.0,72,0.00,,,0.00,WeatherDisplay:10.37,2013-01-06 10:00:00,
2013-01-06 05:05:00,36.9,28.7,29.85,SSW,202,0.0,0.0,72,0.00,,,0.00,WeatherDisplay:10.37,2013-01-06 10:05:00,
2013-01-06 05:10:00,36.9,28.7,29.85,SSW,202,0.0,0.0,72,0.00,,,0.00,WeatherDisplay:10.37,2013-01-06 10:10:00,
2013-01-06 05:15:00,36.7,28.5,29.85,SSW,202,0.0,0.0,72,0.00,,,0.00,WeatherDisplay:10.37,2013-01-06 10:15:00,
2013-01-06 05:20:00,36.7,28.5,29.85,SSW,202,0.0,0.0,72,0.00,,,0.00,WeatherDisplay:10.37,2013-01-06 10:20:00,
2013-01-06 05:25:00,36.7,28.8,29.85,SSW,202,0.6,0.0,73,0.00,,,0.00,WeatherDisplay:10.37,2013-01-06 10:25:00,
2013-01-06 05:30:00,36.9,29.0,29.84,SSW,202,0.0,0.0,73,0.00,,,0.00,WeatherDisplay:10.37,2013-01-06 10:30:00,
2013-01-06 05:35:00,37.0,29.2,29.84,SSW,202,0.0,0.0,73,0.00,,,0.00,WeatherDisplay:10.37,2013-01-06 10:35:00,
2013-01-06 05:40:00,37.2,29.4,29.84,SSW,202,0.0,0.0,73,0.00,,,0.00,WeatherDisplay:10.37,2013-01-06 10:40:00,
2013-01-06 05:45:00,37.2,29.4,29.84,SSW,202,0.0,0.0,73,0.00,,,0.00,WeatherDisplay:10.37,2013-01-06 10:45:00,
2013-01-06 05:50:00,37.2,29.4,29.84,SSW,202,0.0,0.0,73,0.00,,,0.00,WeatherDisplay:10.37,2013-01-06 10:50:00,
2013-01-06 05:55:00,37.2,29.4,29.84,SSW,202,0.0,0.0,73,0.00,,,0.00,WeatherDisplay:10.37,2013-01-06 10:55:00,
2013-01-06 06:00:00,37.2,29.7,29.85,SSW,202,0.0,0.0,74,0.00,,,0.00,WeatherDisplay:10.37,2013-01-06 11:00:00,
2013-01-06 06:05:00,37.0,29.5,29.85,SSW,202,0.0,0.0,74,0.00,,,0.00,WeatherDisplay:10.37,2013-01-06 11:05:00,
2013-01-06 06:10:00,37.0,29.5,29.85,SSW,202,0.0,0.0,74,0.00,,,0.00,WeatherDisplay:10.37,2013-01-06 11:10:00,
2013-01-06 06:15:00,37.0,29.2,29.84,SSW,202,0.0,0.0,73,0.00,,,0.00,WeatherDisplay:10.37,2013-01-06 11:15:00,
2013-01-06 06:20:00,37.0,29.5,29.84,SSW,202,0.0,0.0,74,0.00,,,0.00,WeatherDisplay:10.37,2013-01-06 11:20:00,
2013-01-06 06:25:00,36.9,29.3,29.85,SSW,202,0.0,0.0,74,0.00,,,0.00,WeatherDisplay:10.37,2013-01-06 11:25:00,
2013-01-06 06:30:00,36.7,29.2,29.85,SSW,202,0.0,0.0,74,0.00,,,0.00,WeatherDisplay:10.37,2013-01-06 11:30:00,
2013-01-06 06:35:00,36.7,29.2,29.86,SSW,202,0.0,0.0,74,0.00,,,0.00,WeatherDisplay:10.37,2013-01-06 11:35:00,
2013-01-06 06:40:00,36.7,29.2,29.86,SSW,202,0.0,0.0,74,0.00,,,0.00,WeatherDisplay:10.37,2013-01-06 11:40:00,
2013-01-06 06:45:00,36.7,29.2,29.85,SSW,202,0.0,0.0,74,0.00,,,0.00,WeatherDisplay:10.37,2013-01-06 11:45:00,
2013-01-06 06:50:00,36.7,29.2,29.85,SSW,202,0.0,0.0,74,0.00,,,0.00,WeatherDisplay:10.37,2013-01-06 11:50:00,
2013-01-06 06:55:00,36.7,29.2,29.86,SSW,202,0.0,0.0,74,0.00,,,0.00,WeatherDisplay:10.37,2013-01-06 11:55:00,
2013-01-06 07:00:00,36.5,29.0,29.86,SSW,202,0.0,0.0,74,0.00,,,0.00,WeatherDisplay:10.37,2013-01-06 12:00:00,
2013-01-06 07:05:00,36.5,29.0,29.87,SSW,202,0.0,0.0,74,0.00,,,0.00,WeatherDisplay:10.37,2013-01-06 12:05:00,
2013-01-06 07:10:00,36.3,28.8,29.86,SSW,202,0.0,0.0,74,0.00,,,0.00,WeatherDisplay:10.37,2013-01-06 12:10:00,
2013-01-06 07:15:00,36.3,29.2,29.85,South,180,0.0,0.0,75,0.00,,,0.00,WeatherDisplay:10.37,2013-01-06 12:15:00,
2013-01-06 07:20:00,36.3,29.2,29.86,South,180,0.0,0.0,75,0.00,,,0.00,WeatherDisplay:10.37,2013-01-06 12:20:00,
2013-01-06 07:25:00,36.1,29.0,29.86,South,180,0.0,0.0,75,0.00,,,0.00,WeatherDisplay:10.37,2013-01-06 12:25:00,
2013-01-06 07:30:00,36.0,28.8,29.86,South,180,0.0,0.0,75,0.00,,,0.00,WeatherDisplay:10.37,2013-01-06 12:30:00,
2013-01-06 07:36:00,35.8,28.6,29.86,South,180,0.0,0.0,75,0.00,,,0.00,WeatherDisplay:10.37,2013-01-06 12:36:00,
2013-01-06 07:41:00,35.4,28.6,29.87,South,180,0.0,0.0,76,0.00,,,0.00,WeatherDisplay:10.37,2013-01-06 12:41:00,
2013-01-06 07:46:00,35.2,28.4,29.87,South,180,0.0,0.0,76,0.00,,,0.00,WeatherDisplay:10.37,2013-01-06 12:46:00,
2013-01-06 07:51:00,35.2,28.4,29.86,South,180,0.0,0.0,76,0.00,,,0.00,WeatherDisplay:10.37,2013-01-06 12:51:00,
2013-01-06 07:56:00,35.2,28.8,29.87,South,180,0.0,0.0,77,0.00,,,0.00,WeatherDisplay:10.37,2013-01-06 12:56:00,
2013-01-06 08:01:00,35.2,28.8,29.87,South,180,0.0,0.0,77,0.00,,,0.00,WeatherDisplay:10.37,2013-01-06 13:01:00,
2013-01-06 08:06:00,35.2,28.8,29.87,South,180,0.0,0.0,77,0.00,,,0.00,WeatherDisplay:10.37,2013-01-06 13:06:00,
2013-01-06 08:11:00,35.2,28.8,29.86,South,180,0.0,0.0,77,0.00,,,0.00,WeatherDisplay:10.37,2013-01-06 13:11:00,
2013-01-06 08:16:00,35.4,28.9,29.87,South,180,0.0,0.0,77,0.00,,,0.00,WeatherDisplay:10.37,2013-01-06 13:16:00,
2013-01-06 08:21:00,35.4,28.9,29.87,South,180,0.0,0.0,77,0.00,,,0.00,WeatherDisplay:10.37,2013-01-06 13:21:00,
2013-01-06 08:26:00,35.8,29.3,29.87,South,180,0.0,0.0,77,0.00,,,0.00,WeatherDisplay:10.37,2013-01-06 13:26:00,
2013-01-06 08:31:00,35.8,29.3,29.87,South,180,0.0,0.0,77,0.00,,,0.00,WeatherDisplay:10.37,2013-01-06 13:31:00,
2013-01-06 08:36:00,36.0,29.8,29.87,South,180,0.0,0.0,78,0.00,,,0.00,WeatherDisplay:10.37,2013-01-06 13:36:00,
2013-01-06 08:41:00,36.1,29.9,29.87,South,180,0.0,0.0,78,0.00,,,0.00,WeatherDisplay:10.37,2013-01-06 13:41:00,
2013-01-06 08:46:00,36.3,30.1,29.88,South,180,0.0,0.0,78,0.00,,,0.00,WeatherDisplay:10.37,2013-01-06 13:46:00,
2013-01-06 08:51:00,36.7,30.5,29.87,South,180,0.0,0.0,78,0.00,,,0.00,WeatherDisplay:10.37,2013-01-06 13:51:00,
2013-01-06 08:56:00,37.2,31.0,29.87,South,180,0.0,0.0,78,0.00,,,0.00,WeatherDisplay:10.37,2013-01-06 13:56:00,
2013-01-06 09:01:00,37.4,31.2,29.87,South,180,0.0,0.0,78,0.00,,,0.00,WeatherDisplay:10.37,2013-01-06 14:01:00,
2013-01-06 09:06:00,38.1,32.2,29.87,South,180,0.0,0.0,79,0.00,,,0.00,WeatherDisplay:10.37,2013-01-06 14:06:00,
2013-01-06 09:11:00,38.5,32.2,29.87,South,180,0.0,0.0,78,0.00,,,0.00,WeatherDisplay:10.37,2013-01-06 14:11:00,
2013-01-06 09:16:00,39.0,32.7,29.88,South,180,0.0,0.0,78,0.00,,,0.00,WeatherDisplay:10.37,2013-01-06 14:16:00,
2013-01-06 09:21:00,39.6,33.3,29.88,South,180,0.0,0.0,78,0.00,,,0.00,WeatherDisplay:10.37,2013-01-06 14:21:00,
2013-01-06 09:26:00,39.9,33.3,29.88,South,180,0.0,0.0,77,0.00,,,0.00,WeatherDisplay:10.37,2013-01-06 14:26:00,
2013-01-06 09:31:00,40.3,33.6,29.88,South,180,0.0,0.0,77,0.00,,,0.00,WeatherDisplay:10.37,2013-01-06 14:31:00,
2013-01-06 09:36:00,40.3,33.3,29.87,South,180,0.0,0.0,76,0.00,,,0.00,WeatherDisplay:10.37,2013-01-06 14:36:00,
2013-01-06 09:41:00,40.3,33.3,29.87,South,180,0.0,0.0,76,0.00,,,0.00,WeatherDisplay:10.37,2013-01-06 14:41:00,
2013-01-06 09:46:00,40.3,33.3,29.88,South,180,0.0,0.0,76,0.00,,,0.00,WeatherDisplay:10.37,2013-01-06 14:46:00,
2013-01-06 09:51:00,40.5,33.5,29.87,South,180,0.0,0.0,76,0.00,,,0.00,WeatherDisplay:10.37,2013-01-06 14:51:00,
2013-01-06 09:56:00,40.8,33.8,29.88,South,180,0.0,0.0,76,0.00,,,0.00,WeatherDisplay:10.37,2013-01-06 14:56:00,
2013-01-06 10:01:00,40.8,33.8,29.88,South,180,0.0,0.0,76,0.00,,,0.00,WeatherDisplay:10.37,2013-01-06 15:01:00,
2013-01-06 10:06:00,40.8,33.5,29.88,South,180,0.0,0.0,75,0.00,,,0.00,WeatherDisplay:10.37,2013-01-06 15:06:00,
2013-01-06 10:11:00,41.4,34.0,29.88,South,180,0.0,0.0,75,0.00,,,0.00,WeatherDisplay:10.37,2013-01-06 15:11:00,
2013-01-06 10:16:00,41.5,34.2,29.88,South,180,0.0,0.0,75,0.00,,,0.00,WeatherDisplay:10.37,2013-01-06 15:16:00,
2013-01-06 10:21:00,41.9,34.9,29.88,South,180,0.0,0.0,76,0.00,,,0.00,WeatherDisplay:10.37,2013-01-06 15:21:00,
2013-01-06 10:26:00,42.6,35.6,29.87,South,180,0.0,0.0,76,0.00,,,0.00,WeatherDisplay:10.37,2013-01-06 15:26:00,
2013-01-06 10:31:00,43.0,35.6,29.87,South,180,0.0,0.0,75,0.00,,,0.00,WeatherDisplay:10.37,2013-01-06 15:31:00,
2013-01-06 10:36:00,43.7,36.3,29.87,South,180,0.0,0.0,75,0.00,,,0.00,WeatherDisplay:10.37,2013-01-06 15:36:00,
2013-01-06 10:41:00,44.6,36.8,29.87,South,180,2.6,3.5,74,0.00,,,0.00,WeatherDisplay:10.37,2013-01-06 15:41:00,
2013-01-06 10:46:00,45.3,37.2,29.87,South,181,0.0,0.0,73,0.00,,,0.00,WeatherDisplay:10.37,2013-01-06 15:46:00,
2013-01-06 10:51:00,46.6,38.0,29.87,WSW,248,0.1,0.0,72,0.00,,,0.00,WeatherDisplay:10.37,2013-01-06 15:51:00,
2013-01-06 10:56:00,47.5,38.5,29.87,South,180,2.2,8.0,71,0.00,,,0.00,WeatherDisplay:10.37,2013-01-06 15:56:00,
2013-01-06 11:01:00,48.6,39.2,29.87,SE,135,2.1,3.5,70,0.00,,,0.00,WeatherDisplay:10.37,2013-01-06 16:01:00,
2013-01-06 11:06:00,49.3,39.2,29.87,SSE,158,0.0,2.3,68,0.00,,,0.00,WeatherDisplay:10.37,2013-01-06 16:06:00,
2013-01-06 11:11:00,50.2,40.0,29.86,SE,135,2.6,5.8,68,0.00,,,0.00,WeatherDisplay:10.37,2013-01-06 16:11:00,
2013-01-06 11:16:00,50.5,39.6,29.86,SSE,158,2.2,4.0,66,0.00,,,0.00,WeatherDisplay:10.37,2013-01-06 16:16:00,
2013-01-06 11:21:00,50.7,39.4,29.86,WSW,248,0.0,0.0,65,0.00,,,0.00,WeatherDisplay:10.37,2013-01-06 16:21:00,
2013-01-06 11:26:00,51.3,39.9,29.86,NNE,22,1.7,6.9,65,0.00,,,0.00,WeatherDisplay:10.37,2013-01-06 16:26:00,
2013-01-06 11:31:00,51.6,39.4,29.85,South,180,0.4,1.1,63,0.00,,,0.00,WeatherDisplay:10.37,2013-01-06 16:31:00,
2013-01-06 11:36:00,52.0,40.2,29.85,WSW,248,3.9,5.8,64,0.00,,,0.00,WeatherDisplay:10.37,2013-01-06 16:36:00,
2013-01-06 11:41:00,52.5,40.3,29.85,SW,225,0.9,4.6,63,0.00,,,0.00,WeatherDisplay:10.37,2013-01-06 16:41:00,
2013-01-06 11:46:00,53.2,40.1,29.85,NW,315,0.0,5.8,61,0.00,,,0.00,WeatherDisplay:10.37,2013-01-06 16:46:00,
2013-01-06 11:51:00,53.4,40.3,29.85,SW,225,3.1,4.6,61,0.00,,,0.00,WeatherDisplay:10.37,2013-01-06 16:51:00,
2013-01-06 11:56:00,53.8,40.2,29.85,NE,45,0.0,0.0,60,0.00,,,0.00,WeatherDisplay:10.37,2013-01-06 16:56:00,
2013-01-06 12:01:00,54.1,40.6,29.85,WSW,248,2.8,6.5,60,0.00,,,0.00,WeatherDisplay:10.37,2013-01-06 17:01:00,
2013-01-06 12:06:00,54.3,40.3,29.85,WSW,248,2.1,5.8,59,0.00,,,0.00,WeatherDisplay:10.37,2013-01-06 17:06:00,
2013-01-06 12:11:00,54.5,40.5,29.84,ENE,68,2.8,5.8,59,0.00,,,0.00,WeatherDisplay:10.37,2013-01-06 17:11:00,
2013-01-06 12:16:00,54.7,40.2,29.84,WSW,248,2.2,4.7,58,0.00,,,0.00,WeatherDisplay:10.37,2013-01-06 17:16:00,
2013-01-06 12:21:00,55.0,40.5,29.82,SSE,158,1.8,4.6,58,0.00,,,0.00,WeatherDisplay:10.37,2013-01-06 17:21:00,
2013-01-06 12:26:00,55.2,40.2,29.82,South,180,0.5,3.5,57,0.00,,,0.00,WeatherDisplay:10.37,2013-01-06 17:26:00,
2013-01-06 12:31:00,55.2,40.2,29.82,South,180,1.0,2.3,57,0.00,,,0.00,WeatherDisplay:10.37,2013-01-06 17:31:00,
2013-01-06 12:36:00,55.4,40.0,29.82,SSE,158,0.0,2.3,56,0.00,,,0.00,WeatherDisplay:10.37,2013-01-06 17:36:00,
2013-01-06 12:41:00,55.9,40.9,29.82,SSE,158,4.4,10.4,57,0.00,,,0.00,WeatherDisplay:10.37,2013-01-06 17:41:00,
2013-01-06 12:46:00,56.1,40.6,29.81,SSW,202,3.4,6.9,56,0.00,,,0.00,WeatherDisplay:10.37,2013-01-06 17:46:00,
2013-01-06 12:51:00,56.1,40.2,29.82,South,180,5.6,8.1,55,0.00,,,0.00,WeatherDisplay:10.37,2013-01-06 17:51:00,
2013-01-06 12:56:00,56.3,40.3,29.81,South,180,2.8,6.9,55,0.00,,,0.00,WeatherDisplay:10.37,2013-01-06 17:56:00,
2013-01-06 13:01:00,56.8,40.8,29.81,SSE,158,0.2,2.5,55,0.00,,,0.00,WeatherDisplay:10.37,2013-01-06 18:01:00,
2013-01-06 13:06:00,57.4,41.3,29.80,South,180,3.3,5.8,55,0.00,,,0.00,WeatherDisplay:10.37,2013-01-06 18:06:00,
2013-01-06 13:11:00,57.4,40.9,29.80,NE,45,0.1,4.6,54,0.00,,,0.00,WeatherDisplay:10.37,2013-01-06 18:11:00,
2013-01-06 13:16:00,57.4,40.4,29.80,SW,225,0.0,6.9,53,0.00,,,0.00,WeatherDisplay:10.37,2013-01-06 18:16:00,
2013-01-06 13:21:00,57.6,41.0,29.79,SSW,202,1.4,4.6,54,0.00,,,0.00,WeatherDisplay:10.37,2013-01-06 18:21:00,
2013-01-06 13:26:00,57.9,41.4,29.79,SE,135,3.8,5.8,54,0.00,,,0.00,WeatherDisplay:10.37,2013-01-06 18:26:00,
2013-01-06 13:31:00,58.1,41.0,29.79,SSE,158,2.0,8.1,53,0.00,,,0.00,WeatherDisplay:10.37,2013-01-06 18:31:00,
2013-01-06 13:36:00,58.6,41.1,29.79,SE,135,2.5,2.5,52,0.00,,,0.00,WeatherDisplay:10.37,2013-01-06 18:36:00,
2013-01-06 13:41:00,58.6,41.1,29.79,SE,135,1.8,5.8,52,0.00,,,0.00,WeatherDisplay:10.37,2013-01-06 18:41:00,
2013-01-06 13:46:00,58.5,40.9,29.79,SSE,158,0.1,4.6,52,0.00,,,0.00,WeatherDisplay:10.37,2013-01-06 18:46:00,
2013-01-06 13:51:00,57.9,39.9,29.79,SSE,158,2.6,6.9,51,0.00,,,0.00,WeatherDisplay:10.37,2013-01-06 18:51:00,
2013-01-06 13:56:00,57.4,39.9,29.78,SE,135,1.5,5.4,52,0.00,,,0.00,WeatherDisplay:10.37,2013-01-06 18:56:00,
2013-01-06 14:01:00,57.0,39.6,29.78,ESE,112,1.0,2.3,52,0.00,,,0.00,WeatherDisplay:10.37,2013-01-06 19:01:00,
2013-01-06 14:06:00,56.8,39.9,29.78,SSE,158,2.6,4.2,53,0.00,,,0.00,WeatherDisplay:10.37,2013-01-06 19:06:00,
2013-01-06 14:11:00,57.0,40.0,29.78,SSE,158,0.2,3.5,53,0.00,,,0.00,WeatherDisplay:10.37,2013-01-06 19:11:00,
2013-01-06 14:16:00,57.4,39.9,29.78,South,180,0.9,2.3,52,0.00,,,0.00,WeatherDisplay:10.37,2013-01-06 19:16:00,
2013-01-06 14:21:00,57.6,40.1,29.77,SE,135,2.0,5.8,52,0.00,,,0.00,WeatherDisplay:10.37,2013-01-06 19:21:00,
2013-01-06 14:26:00,57.6,39.6,29.78,ESE,112,2.6,5.8,51,0.00,,,0.00,WeatherDisplay:10.37,2013-01-06 19:26:00,
2013-01-06 14:31:00,57.4,39.4,29.78,North,0,3.0,5.8,51,0.00,,,0.00,WeatherDisplay:10.37,2013-01-06 19:31:00,
2013-01-06 14:36:00,57.2,39.2,29.77,SE,135,2.3,6.9,51,0.00,,,0.00,WeatherDisplay:10.37,2013-01-06 19:36:00,
2013-01-06 14:41:00,57.0,39.6,29.77,SSE,158,1.1,5.8,52,0.00,,,0.00,WeatherDisplay:10.37,2013-01-06 19:41:00,
2013-01-06 14:46:00,57.4,39.9,29.77,SE,135,1.2,2.9,52,0.00,,,0.00,WeatherDisplay:10.37,2013-01-06 19:46:00,
2013-01-06 14:51:00,57.6,39.6,29.77,South,180,4.2,4.2,51,0.00,,,0.00,WeatherDisplay:10.37,2013-01-06 19:51:00,
2013-01-06 14:57:00,57.7,40.2,29.78,SE,135,1.2,3.5,52,0.00,,,0.00,WeatherDisplay:10.37,2013-01-06 19:57:00,
2013-01-06 15:02:00,57.9,39.9,29.77,SSE,158,1.9,4.6,51,0.00,,,0.00,WeatherDisplay:10.37,2013-01-06 20:02:00,
2013-01-06 15:07:00,57.9,39.9,29.77,SE,135,0.3,2.5,51,0.00,,,0.00,WeatherDisplay:10.37,2013-01-06 20:07:00,
2013-01-06 15:11:00,58.1,39.5,29.77,SSW,202,1.2,4.6,50,0.00,,,0.00,WeatherDisplay:10.37,2013-01-06 20:11:00,
2013-01-06 15:13:00,58.1,39.5,29.77,SSW,202,1.5,3.5,50,0.00,,,0.00,WeatherDisplay:10.37,2013-01-06 20:13:00,
2013-01-06 15:18:00,57.9,39.4,29.77,SSW,202,1.9,6.9,50,0.00,,,0.00,WeatherDisplay:10.37,2013-01-06 20:18:00,
2013-01-06 15:23:00,57.6,38.5,29.77,NE,45,3.2,8.1,49,0.00,,,0.00,WeatherDisplay:10.37,2013-01-06 20:23:00,
2013-01-06 15:28:00,56.8,38.4,29.77,East,90,0.5,2.3,50,0.00,,,0.00,WeatherDisplay:10.37,2013-01-06 20:28:00,
2013-01-06 15:33:00,56.1,38.2,29.78,WSW,248,0.3,1.1,51,0.00,,,0.00,WeatherDisplay:10.37,2013-01-06 20:33:00,
2013-01-06 15:38:00,55.4,37.6,29.78,ENE,68,0.5,3.5,51,0.00,,,0.00,WeatherDisplay:10.37,2013-01-06 20:38:00,
2013-01-06 15:43:00,54.5,36.7,29.78,NW,315,1.9,6.5,51,0.00,,,0.00,WeatherDisplay:10.37,2013-01-06 20:43:00,
2013-01-06 15:48:00,53.4,36.2,29.80,NE,45,5.6,5.8,52,0.00,,,0.00,WeatherDisplay:10.37,2013-01-06 20:48:00,
2013-01-06 15:53:00,52.3,36.2,29.79,North,0,2.6,6.9,54,0.00,,,0.00,WeatherDisplay:10.37,2013-01-06 20:53:00,
2013-01-06 15:58:00,51.4,35.8,29.79,West,270,0.4,1.1,55,0.00,,,0.00,WeatherDisplay:10.37,2013-01-06 20:58:00,
2013-01-06 16:01:00,51.1,35.5,29.79,NE,45,1.8,6.9,55,0.00,,,0.00,WeatherDisplay:10.37,2013-01-06 21:01:00,
2013-01-06 16:06:00,50.7,35.6,29.80,North,0,3.2,4.6,56,0.00,,,0.00,WeatherDisplay:10.37,2013-01-06 21:06:00,
2013-01-06 16:11:00,50.0,35.4,29.80,WNW,292,4.1,5.8,57,0.00,,,0.00,WeatherDisplay:10.37,2013-01-06 21:11:00,
2013-01-06 16:16:00,49.6,35.5,29.79,West,270,3.2,8.1,58,0.00,,,0.00,WeatherDisplay:10.37,2013-01-06 21:16:00,
2013-01-06 16:21:00,49.3,35.5,29.80,West,270,2.6,9.2,59,0.00,,,0.00,WeatherDisplay:10.37,2013-01-06 21:21:00,
2013-01-06 16:26:00,49.1,35.4,29.80,SSE,158,2.1,4.6,59,0.00,,,0.00,WeatherDisplay:10.37,2013-01-06 21:26:00,
2013-01-06 16:31:00,48.9,35.2,29.80,WSW,248,1.3,6.9,59,0.00,,,0.00,WeatherDisplay:10.37,2013-01-06 21:31:00,
2013-01-06 16:36:00,48.4,34.7,29.80,SSE,158,1.1,5.8,59,0.00,,,0.00,WeatherDisplay:10.37,2013-01-06 21:36:00,
2013-01-06 16:41:00,48.2,35.0,29.80,WSW,248,0.0,6.9,60,0.00,,,0.00,WeatherDisplay:10.37,2013-01-06 21:41:00,
2013-01-06 16:46:00,47.8,34.6,29.80,WNW,292,1.9,5.8,60,0.00,,,0.00,WeatherDisplay:10.37,2013-01-06 21:46:00,
2013-01-06 16:51:00,47.3,34.1,29.80,SW,225,2.3,2.3,60,0.00,,,0.00,WeatherDisplay:10.37,2013-01-06 21:51:00,
2013-01-06 16:56:00,46.9,34.2,29.80,South,180,1.1,4.6,61,0.00,,,0.00,WeatherDisplay:10.37,2013-01-06 21:56:00,
2013-01-06 17:01:00,46.9,34.2,29.80,SSE,158,0.0,2.3,61,0.00,,,0.00,WeatherDisplay:10.37,2013-01-06 22:01:00,
2013-01-06 17:06:00,46.6,33.8,29.80,North,0,0.0,0.0,61,0.00,,,0.00,WeatherDisplay:10.37,2013-01-06 22:06:00,
2013-01-06 17:11:00,46.0,33.3,29.80,SW,225,0.6,5.8,61,0.00,,,0.00,WeatherDisplay:10.37,2013-01-06 22:11:00,
2013-01-06 17:16:00,45.5,33.2,29.80,South,180,1.3,4.6,62,0.00,,,0.00,WeatherDisplay:10.37,2013-01-06 22:16:00,
2013-01-06 17:21:00,45.0,33.1,29.80,SSW,202,1.0,0.0,63,0.00,,,0.00,WeatherDisplay:10.37,2013-01-06 22:21:00,
2013-01-06 17:26:00,44.4,33.0,29.80,SSE,158,0.2,0.0,64,0.00,,,0.00,WeatherDisplay:10.37,2013-01-06 22:26:00,
2013-01-06 17:31:00,44.1,32.7,29.80,SSE,158,0.0,0.0,64,0.00,,,0.00,WeatherDisplay:10.37,2013-01-06 22:31:00,
2013-01-06 17:36:00,43.5,32.1,29.81,SSE,158,0.0,0.0,64,0.00,,,0.00,WeatherDisplay:10.37,2013-01-06 22:36:00,
2013-01-06 17:41:00,43.2,31.8,29.81,SSE,158,0.0,0.0,64,0.00,,,0.00,WeatherDisplay:10.37,2013-01-06 22:41:00,
2013-01-06 17:46:00,42.6,31.7,29.81,SSE,158,0.0,0.0,65,0.00,,,0.00,WeatherDisplay:10.37,2013-01-06 22:46:00,
2013-01-06 17:51:00,42.4,31.9,29.81,SSE,158,0.0,0.0,66,0.00,,,0.00,WeatherDisplay:10.37,2013-01-06 22:51:00,
2013-01-06 17:56:00,42.1,31.5,29.82,SSE,158,0.0,0.0,66,0.00,,,0.00,WeatherDisplay:10.37,2013-01-06 22:56:00,
2013-01-06 18:01:00,41.5,31.0,29.82,SSE,158,0.0,0.0,66,0.00,,,0.00,WeatherDisplay:10.37,2013-01-06 23:01:00,
2013-01-06 18:06:00,41.2,31.0,29.81,South,180,0.0,0.0,67,0.00,,,0.00,WeatherDisplay:10.37,2013-01-06 23:06:00,
2013-01-06 18:11:00,40.8,31.1,29.82,West,270,0.5,4.6,68,0.00,,,0.00,WeatherDisplay:10.37,2013-01-06 23:11:00,
2013-01-06 18:16:00,40.8,31.4,29.82,NNW,338,1.2,5.8,69,0.00,,,0.00,WeatherDisplay:10.37,2013-01-06 23:16:00,
2013-01-06 18:21:00,40.6,31.6,29.83,NNW,338,2.3,6.9,70,0.00,,,0.00,WeatherDisplay:10.37,2013-01-06 23:21:00,
2013-01-06 18:26:00,40.6,31.6,29.84,NW,315,4.9,10.4,70,0.00,,,0.00,WeatherDisplay:10.37,2013-01-06 23:26:00,
2013-01-06 18:31:00,40.3,31.3,29.83,ESE,112,1.2,2.3,70,0.00,,,0.00,WeatherDisplay:10.37,2013-01-06 23:31:00,
2013-01-06 18:36:00,39.9,30.9,29.85,SSW,202,0.3,2.3,70,0.00,,,0.00,WeatherDisplay:10.37,2013-01-06 23:36:00,
2013-01-06 18:42:00,39.7,30.8,29.84,SW,225,0.0,0.0,70,0.00,,,0.00,WeatherDisplay:10.37,2013-01-06 23:42:00,
2013-01-06 18:47:00,39.6,30.9,29.85,South,180,1.3,3.5,71,0.00,,,0.00,WeatherDisplay:10.37,2013-01-06 23:47:00,
2013-01-06 18:52:00,39.4,30.8,29.85,SSE,158,1.0,3.5,71,0.00,,,0.00,WeatherDisplay:10.37,2013-01-06 23:52:00,
2013-01-06 18:57:00,39.4,30.8,29.85,South,180,0.0,0.0,71,0.00,,,0.00,WeatherDisplay:10.37,2013-01-06 23:57:00,
2013-01-06 19:02:00,39.4,30.8,29.85,South,180,0.0,0.0,71,0.00,,,0.00,WeatherDisplay:10.37,2013-01-07 00:02:00,
2013-01-06 19:07:00,39.4,30.8,29.86,NNE,22,0.0,0.0,71,0.00,,,0.00,WeatherDisplay:10.37,2013-01-07 00:07:00,
2013-01-06 19:12:00,39.4,30.8,29.86,South,180,0.0,0.0,71,0.00,,,0.00,WeatherDisplay:10.37,2013-01-07 00:12:00,
2013-01-06 19:17:00,39.4,30.8,29.86,SE,135,0.0,0.0,71,0.00,,,0.00,WeatherDisplay:10.37,2013-01-07 00:17:00,
2013-01-06 19:22:00,39.4,31.1,29.86,NE,45,0.0,0.0,72,0.00,,,0.00,WeatherDisplay:10.37,2013-01-07 00:22:00,
2013-01-06 19:27:00,39.2,30.6,29.86,East,90,0.0,0.0,71,0.00,,,0.00,WeatherDisplay:10.37,2013-01-07 00:27:00,
2013-01-06 19:32:00,39.0,30.4,29.87,SE,135,0.0,0.0,71,0.00,,,0.00,WeatherDisplay:10.37,2013-01-07 00:32:00,
2013-01-06 19:37:00,39.0,30.4,29.86,SE,135,0.0,0.0,71,0.00,,,0.00,WeatherDisplay:10.37,2013-01-07 00:37:00,
2013-01-06 19:42:00,38.8,30.2,29.86,South,180,0.0,6.9,71,0.00,,,0.00,WeatherDisplay:10.37,2013-01-07 00:42:00,
2013-01-06 19:47:00,38.5,29.9,29.86,ESE,112,0.0,0.0,71,0.00,,,0.00,WeatherDisplay:10.37,2013-01-07 00:47:00,
2013-01-06 19:52:00,37.9,29.4,29.86,ESE,112,0.0,0.0,71,0.00,,,0.00,WeatherDisplay:10.37,2013-01-07 00:52:00,
2013-01-06 19:57:00,37.6,29.0,29.86,SSW,202,0.0,0.0,71,0.00,,,0.00,WeatherDisplay:10.37,2013-01-07 00:57:00,
2013-01-06 20:02:00,37.4,29.2,29.86,SE,135,0.0,0.0,72,0.00,,,0.00,WeatherDisplay:10.37,2013-01-07 01:02:00,
2013-01-06 20:07:00,37.0,28.8,29.87,ENE,68,0.0,0.0,72,0.00,,,0.00,WeatherDisplay:10.37,2013-01-07 01:07:00,
2013-01-06 20:12:00,36.7,28.5,29.87,ENE,68,1.0,7.6,72,0.00,,,0.00,WeatherDisplay:10.37,2013-01-07 01:12:00,
2013-01-06 20:17:00,36.5,28.7,29.88,NE,45,0.9,2.3,73,0.00,,,0.00,WeatherDisplay:10.37,2013-01-07 01:17:00,
2013-01-06 20:22:00,36.3,28.5,29.88,NE,45,0.0,0.0,73,0.00,,,0.00,WeatherDisplay:10.37,2013-01-07 01:22:00,
2013-01-06 20:27:00,36.1,28.3,29.88,NE,45,0.0,0.0,73,0.00,,,0.00,WeatherDisplay:10.37,2013-01-07 01:27:00,
2013-01-06 20:32:00,35.8,28.3,29.87,ENE,68,0.9,1.1,74,0.00,,,0.00,WeatherDisplay:10.37,2013-01-07 01:32:00,
2013-01-06 20:37:00,35.8,28.3,29.88,NE,45,0.0,3.5,74,0.00,,,0.00,WeatherDisplay:10.37,2013-01-07 01:37:00,
2013-01-06 20:42:00,36.0,28.5,29.87,WSW,248,0.8,3.5,74,0.00,,,0.00,WeatherDisplay:10.37,2013-01-07 01:42:00,
2013-01-06 20:47:00,36.0,28.5,29.87,NE,45,0.0,3.5,74,0.00,,,0.00,WeatherDisplay:10.37,2013-01-07 01:47:00,
2013-01-06 20:52:00,35.8,28.0,29.87,NE,45,0.0,0.0,73,0.00,,,0.00,WeatherDisplay:10.37,2013-01-07 01:52:00,
2013-01-06 20:57:00,35.6,27.8,29.87,NW,315,0.0,0.0,73,0.00,,,0.00,WeatherDisplay:10.37,2013-01-07 01:57:00,
2013-01-06 21:02:00,35.4,27.6,29.88,NNE,22,0.0,0.0,73,0.00,,,0.00,WeatherDisplay:10.37,2013-01-07 02:02:00,
2013-01-06 21:07:00,35.4,27.6,29.88,NNE,22,0.0,0.0,73,0.00,,,0.00,WeatherDisplay:10.37,2013-01-07 02:07:00,
2013-01-06 21:12:00,35.4,27.6,29.88,WNW,292,0.0,0.0,73,0.00,,,0.00,WeatherDisplay:10.37,2013-01-07 02:12:00,
2013-01-06 21:17:00,35.4,27.6,29.88,South,180,0.0,6.9,73,0.00,,,0.00,WeatherDisplay:10.37,2013-01-07 02:17:00,
2013-01-06 21:22:00,35.4,27.6,29.88,NNE,22,0.0,0.0,73,0.00,,,0.00,WeatherDisplay:10.37,2013-01-07 02:22:00,
2013-01-06 21:27:00,35.2,27.4,29.88,NE,45,0.0,0.0,73,0.00,,,0.00,WeatherDisplay:10.37,2013-01-07 02:27:00,
2013-01-06 21:32:00,35.2,27.4,29.89,NE,45,0.0,0.0,73,0.00,,,0.00,WeatherDisplay:10.37,2013-01-07 02:32:00,
2013-01-06 21:37:00,34.7,26.9,29.89,NNE,22,0.0,0.0,73,0.00,,,0.00,WeatherDisplay:10.37,2013-01-07 02:37:00,
2013-01-06 21:42:00,34.5,26.8,29.89,NNE,22,0.0,0.0,73,0.00,,,0.00,WeatherDisplay:10.37,2013-01-07 02:42:00,
2013-01-06 21:47:00,34.3,26.9,29.88,NNE,22,0.0,0.0,74,0.00,,,0.00,WeatherDisplay:10.37,2013-01-07 02:47:00,
2013-01-06 21:52:00,34.3,26.9,29.88,NNE,22,0.3,3.5,74,0.00,,,0.00,WeatherDisplay:10.37,2013-01-07 02:52:00,
2013-01-06 21:57:00,34.3,27.2,29.89,NNE,22,0.0,0.0,75,0.00,,,0.00,WeatherDisplay:10.37,2013-01-07 02:57:00,
2013-01-06 22:02:00,34.3,27.2,29.89,NNE,22,0.0,0.0,75,0.00,,,0.00,WeatherDisplay:10.37,2013-01-07 03:02:00,
2013-01-06 22:07:00,34.3,27.2,29.89,NNE,22,0.0,0.0,75,0.00,,,0.00,WeatherDisplay:10.37,2013-01-07 03:07:00,
2013-01-06 22:12:00,34.5,27.4,29.90,SE,135,0.1,0.0,75,0.00,,,0.00,WeatherDisplay:10.37,2013-01-07 03:12:00,
2013-01-06 22:17:00,34.9,27.8,29.89,SE,135,0.0,0.0,75,0.00,,,0.00,WeatherDisplay:10.37,2013-01-07 03:17:00,
2013-01-06 22:22:00,34.9,27.8,29.90,ESE,112,0.0,0.0,75,0.00,,,0.00,WeatherDisplay:10.37,2013-01-07 03:22:00,
2013-01-06 22:27:00,35.2,28.1,29.89,NNE,22,0.0,1.1,75,0.00,,,0.00,WeatherDisplay:10.37,2013-01-07 03:27:00,
2013-01-06 22:32:00,34.9,27.4,29.88,NNE,22,0.0,0.0,74,0.00,,,0.00,WeatherDisplay:10.37,2013-01-07 03:32:00,
2013-01-06 22:37:00,34.9,27.4,29.88,South,180,0.0,0.0,74,0.00,,,0.00,WeatherDisplay:10.37,2013-01-07 03:37:00,
2013-01-06 22:42:00,34.9,27.4,29.88,ENE,68,0.0,1.1,74,0.00,,,0.00,WeatherDisplay:10.37,2013-01-07 03:42:00,
2013-01-06 22:47:00,34.9,27.4,29.89,South,180,0.0,0.0,74,0.00,,,0.00,WeatherDisplay:10.37,2013-01-07 03:47:00,
2013-01-06 22:52:00,34.9,27.1,29.89,NE,45,3.2,4.6,73,0.00,,,0.00,WeatherDisplay:10.37,2013-01-07 03:52:00,
2013-01-06 22:57:00,35.2,27.4,29.89,ESE,112,3.3,6.3,73,0.00,,,0.00,WeatherDisplay:10.37,2013-01-07 03:57:00,
2013-01-06 23:02:00,35.8,27.6,29.88,NNE,22,1.9,2.3,72,0.00,,,0.00,WeatherDisplay:10.37,2013-01-07 04:02:00,
2013-01-06 23:07:00,36.0,27.5,29.89,NE,45,5.1,11.5,71,0.00,,,0.00,WeatherDisplay:10.37,2013-01-07 04:07:00,
2013-01-06 23:12:00,36.1,27.6,29.88,NE,45,2.5,5.8,71,0.00,,,0.00,WeatherDisplay:10.37,2013-01-07 04:12:00,
2013-01-06 23:17:00,36.3,27.5,29.89,ENE,68,5.6,9.2,70,0.00,,,0.00,WeatherDisplay:10.37,2013-01-07 04:17:00,
2013-01-06 23:22:00,37.0,27.8,29.89,SE,135,2.4,5.8,69,0.00,,,0.00,WeatherDisplay:10.37,2013-01-07 04:22:00,
2013-01-06 23:27:00,37.6,28.0,29.89,WSW,248,3.2,6.9,68,0.00,,,0.00,WeatherDisplay:10.37,2013-01-07 04:27:00,
2013-01-06 23:32:00,37.9,28.0,29.91,NE,45,0.9,4.6,67,0.00,,,0.00,WeatherDisplay:10.37,2013-01-07 04:32:00,
2013-01-06 23:37:00,37.9,28.0,29.91,SSE,158,3.6,5.8,67,0.00,,,0.00,WeatherDisplay:10.37,2013-01-07 04:37:00,
2013-01-06 23:42:00,38.1,27.8,29.91,SSW,202,2.9,6.9,66,0.00,,,0.00,WeatherDisplay:10.37,2013-01-07 04:42:00,
2013-01-06 23:47:00,38.1,27.8,29.92,North,0,0.6,5.4,66,0.00,,,0.00,WeatherDisplay:10.37,2013-01-07 04:47:00,
2013-01-06 23:52:00,38.1,27.8,29.91,East,90,1.0,5.8,66,0.00,,,0.00,WeatherDisplay:10.37,2013-01-07 04:52:00,
2013-01-06 23:57:00,38.1,27.8,29.91,SSE,158,2.6,4.6,66,0.00,,,0.00,WeatherDisplay:10.37,2013-01-07 04:57:00,